Time,TemperatureF,DewpointF,PressureIn,WindDirection,WindDirectionDegrees,WindSpeedMPH,WindSpeedGustMPH,Humidity,HourlyPrecipIn,Conditions,Clouds,dailyrainin,SoftwareType,DateUTC
2013-03-23 00:02:00,29.0,19.0,29.70,NW,319,2.0,9.0,65,0.00,,,0.06,,2013-03-23 04:02:00,
2013-03-23 00:12:00,29.0,19.0,29.70,NW,319,2.0,9.0,65,0.00,,,0.06,,2013-03-23 04:12:00,
2013-03-23 00:23:00,29.0,19.0,29.70,North,355,2.0,4.0,66,0.00,,,0.06,,2013-03-23 04:23:00,
2013-03-23 00:32:00,29.0,19.0,29.71,NW,326,1.0,3.0,66,0.00,,,0.06,,2013-03-23 04:32:00,
2013-03-23 00:43:00,29.0,19.0,29.71,NW,326,1.0,3.0,66,0.00,,,0.06,,2013-03-23 04:43:00,
2013-03-23 00:53:00,28.0,18.0,29.71,WSW,245,1.0,9.0,66,0.00,,,0.06,,2013-03-23 04:53:00,
2013-03-23 01:02:00,28.0,18.0,29.71,NW,323,1.0,7.0,67,0.00,,,0.06,,2013-03-23 05:02:00,
2013-03-23 01:12:00,28.0,18.0,29.71,NW,323,1.0,7.0,67,0.00,,,0.06,,2013-03-23 05:12:00,
2013-03-23 01:22:00,28.0,18.0,29.70,NW,312,2.0,5.0,67,0.00,,,0.06,,2013-03-23 05:22:00,
2013-03-23 01:32:00,28.0,18.0,29.70,NNW,347,0.0,4.0,67,0.00,,,0.06,,2013-03-23 05:32:00,
2013-03-23 01:42:00,28.0,18.0,29.70,NNW,347,0.0,4.0,67,0.00,,,0.06,,2013-03-23 05:42:00,
2013-03-23 01:53:00,28.0,18.0,29.70,NNW,327,2.0,4.0,67,0.00,,,0.06,,2013-03-23 05:53:00,
2013-03-23 02:02:00,28.0,18.0,29.70,North,4,2.0,6.0,66,0.00,,,0.06,,2013-03-23 06:02:00,
2013-03-23 02:12:00,28.0,18.0,29.70,North,4,2.0,6.0,66,0.00,,,0.06,,2013-03-23 06:12:00,
2013-03-23 02:22:00,28.0,18.0,29.70,WNW,287,2.0,5.0,66,0.00,,,0.06,,2013-03-23 06:22:00,
2013-03-23 02:32:00,28.0,18.0,29.70,NNW,333,2.0,4.0,66,0.00,,,0.06,,2013-03-23 06:32:00,
2013-03-23 02:42:00,28.0,18.0,29.70,NNW,333,2.0,4.0,66,0.00,,,0.06,,2013-03-23 06:42:00,
2013-03-23 02:52:00,28.0,18.0,29.70,NNW,329,3.0,6.0,67,0.00,,,0.06,,2013-03-23 06:52:00,
2013-03-23 03:02:00,28.0,18.0,29.69,WNW,288,2.0,4.0,67,0.00,,,0.06,,2013-03-23 07:02:00,
2013-03-23 03:12:00,28.0,18.0,29.69,WNW,288,2.0,4.0,67,0.00,,,0.06,,2013-03-23 07:12:00,
2013-03-23 03:22:00,28.0,19.0,29.69,NW,323,1.0,4.0,68,0.00,,,0.06,,2013-03-23 07:22:00,
2013-03-23 03:32:00,28.0,19.0,29.69,NW,323,2.0,4.0,68,0.00,,,0.06,,2013-03-23 07:32:00,
2013-03-23 03:42:00,28.0,19.0,29.69,NW,323,2.0,4.0,68,0.00,,,0.06,,2013-03-23 07:42:00,
2013-03-23 03:52:00,28.0,19.0,29.68,NW,323,3.0,5.0,69,0.00,,,0.06,,2013-03-23 07:52:00,
2013-03-23 04:02:00,27.0,19.0,29.68,NW,321,2.0,6.0,71,0.00,,,0.06,,2013-03-23 08:02:00,
2013-03-23 04:13:00,27.0,19.0,29.68,NW,321,2.0,6.0,71,0.00,,,0.06,,2013-03-23 08:13:00,
2013-03-23 04:22:00,27.0,20.0,29.68,NW,321,2.0,4.0,73,0.00,,,0.06,,2013-03-23 08:22:00,
2013-03-23 04:32:00,27.0,20.0,29.68,NW,321,2.0,3.0,73,0.00,,,0.06,,2013-03-23 08:32:00,
2013-03-23 04:42:00,27.0,20.0,29.68,NW,321,2.0,3.0,73,0.00,,,0.06,,2013-03-23 08:42:00,
2013-03-23 04:52:00,27.0,20.0,29.68,NW,319,2.0,4.0,74,0.00,,,0.06,,2013-03-23 08:52:00,
2013-03-23 05:02:00,27.0,20.0,29.68,NW,319,1.0,4.0,75,0.00,,,0.06,,2013-03-23 09:02:00,
2013-03-23 05:12:00,27.0,20.0,29.68,NW,319,1.0,4.0,75,0.00,,,0.06,,2013-03-23 09:12:00,
2013-03-23 05:22:00,27.0,20.0,29.67,NW,304,3.0,4.0,75,0.00,,,0.06,,2013-03-23 09:22:00,
2013-03-23 05:33:00,27.0,20.0,29.67,NW,319,2.0,5.0,75,0.00,,,0.06,,2013-03-23 09:33:00,
2013-03-23 05:43:00,27.0,20.0,29.67,NW,319,2.0,5.0,75,0.00,,,0.06,,2013-03-23 09:43:00,
2013-03-23 05:53:00,28.0,21.0,29.67,NNW,334,1.0,6.0,74,0.00,,,0.06,,2013-03-23 09:53:00,
2013-03-23 06:03:00,28.0,21.0,29.68,NW,321,2.0,4.0,74,0.00,,,0.06,,2013-03-23 10:03:00,
2013-03-23 06:13:00,28.0,21.0,29.68,NW,321,2.0,4.0,74,0.00,,,0.06,,2013-03-23 10:13:00,
2013-03-23 06:23:00,28.0,21.0,29.68,NW,321,2.0,5.0,74,0.00,,,0.06,,2013-03-23 10:23:00,
2013-03-23 06:34:00,28.0,20.0,29.67,NW,321,2.0,4.0,73,0.00,,,0.06,,2013-03-23 10:34:00,
2013-03-23 06:43:00,28.0,20.0,29.67,NW,321,2.0,4.0,73,0.00,,,0.06,,2013-03-23 10:43:00,
2013-03-23 06:52:00,28.0,20.0,29.67,NNW,329,2.0,4.0,73,0.00,,,0.06,,2013-03-23 10:52:00,
2013-03-23 07:03:00,28.0,21.0,29.68,NNW,329,1.0,3.0,74,0.00,,,0.06,,2013-03-23 11:03:00,
2013-03-23 07:12:00,28.0,21.0,29.68,NNW,329,1.0,3.0,74,0.00,,,0.06,,2013-03-23 11:12:00,
2013-03-23 07:22:00,28.0,21.0,29.67,NNW,329,3.0,3.0,74,0.00,,,0.06,,2013-03-23 11:22:00,
2013-03-23 07:32:00,28.0,21.0,29.67,NNW,329,2.0,4.0,75,0.00,,,0.06,,2013-03-23 11:32:00,
2013-03-23 07:42:00,28.0,21.0,29.67,NNW,329,2.0,4.0,75,0.00,,,0.06,,2013-03-23 11:42:00,
2013-03-23 07:52:00,29.0,22.0,29.67,NNW,328,2.0,4.0,75,0.00,,,0.06,,2013-03-23 11:52:00,
2013-03-23 08:02:00,29.0,22.0,29.67,WNW,300,3.0,5.0,74,0.00,,,0.06,,2013-03-23 12:02:00,
2013-03-23 08:13:00,29.0,22.0,29.67,WNW,300,3.0,5.0,74,0.00,,,0.06,,2013-03-23 12:13:00,
2013-03-23 08:22:00,30.0,22.0,29.66,NW,323,4.0,6.0,73,0.00,,,0.06,,2013-03-23 12:22:00,
2013-03-23 08:33:00,31.0,23.0,29.66,NNW,332,4.0,6.0,71,0.00,,,0.06,,2013-03-23 12:33:00,
2013-03-23 08:42:00,31.0,23.0,29.66,NNW,332,4.0,6.0,71,0.00,,,0.06,,2013-03-23 12:42:00,
2013-03-23 08:53:00,31.0,22.0,29.66,NNW,345,5.0,10.0,68,0.00,,,0.06,,2013-03-23 12:53:00,
2013-03-23 09:03:00,32.0,22.0,29.66,NNW,328,4.0,13.0,66,0.00,,,0.06,,2013-03-23 13:03:00,
2013-03-23 09:12:00,32.0,22.0,29.66,NNW,328,4.0,13.0,66,0.00,,,0.06,,2013-03-23 13:12:00,
2013-03-23 09:23:00,32.0,21.0,29.67,NNW,343,3.0,11.0,63,0.00,,,0.06,,2013-03-23 13:23:00,
2013-03-23 09:33:00,33.0,21.0,29.66,WNW,293,5.0,7.0,61,0.00,,,0.06,,2013-03-23 13:33:00,
2013-03-23 09:43:00,33.0,21.0,29.66,WNW,293,5.0,7.0,61,0.00,,,0.06,,2013-03-23 13:43:00,
2013-03-23 09:53:00,34.0,21.0,29.66,NNW,347,3.0,16.0,59,0.00,,,0.06,,2013-03-23 13:53:00,
2013-03-23 10:03:00,34.0,20.0,29.66,North,358,8.0,12.0,57,0.00,,,0.06,,2013-03-23 14:03:00,
2013-03-23 10:12:00,34.0,20.0,29.66,North,358,8.0,12.0,57,0.00,,,0.06,,2013-03-23 14:12:00,
2013-03-23 10:22:00,35.0,20.0,29.66,North,4,4.0,9.0,55,0.00,,,0.06,,2013-03-23 14:22:00,
2013-03-23 10:32:00,35.0,21.0,29.65,SE,131,1.0,11.0,56,0.00,,,0.06,,2013-03-23 14:32:00,
2013-03-23 10:43:00,35.0,21.0,29.65,SE,131,1.0,11.0,56,0.00,,,0.06,,2013-03-23 14:43:00,
2013-03-23 10:53:00,34.0,20.0,29.65,NNW,328,4.0,20.0,55,0.00,,,0.06,,2013-03-23 14:53:00,
2013-03-23 11:03:00,36.0,21.0,29.65,NW,304,2.0,7.0,55,0.00,,,0.06,,2013-03-23 15:03:00,
2013-03-23 11:12:00,36.0,21.0,29.65,NW,304,2.0,7.0,55,0.00,,,0.06,,2013-03-23 15:12:00,
2013-03-23 11:22:00,35.0,19.0,29.65,NW,319,4.0,12.0,52,0.00,,,0.06,,2013-03-23 15:22:00,
2013-03-23 11:33:00,35.0,19.0,29.65,North,350,3.0,11.0,51,0.00,,,0.06,,2013-03-23 15:33:00,
2013-03-23 11:43:00,35.0,19.0,29.65,North,350,3.0,11.0,51,0.00,,,0.06,,2013-03-23 15:43:00,
2013-03-23 11:53:00,36.0,20.0,29.65,North,349,1.0,12.0,51,0.00,,,0.04,,2013-03-23 15:53:00,
2013-03-23 12:03:00,36.0,20.0,29.64,NNE,25,4.0,10.0,51,0.00,,,0.04,,2013-03-23 16:03:00,
2013-03-23 12:13:00,36.0,20.0,29.64,NNE,25,4.0,10.0,51,0.00,,,0.04,,2013-03-23 16:13:00,
2013-03-23 12:23:00,37.0,19.0,29.64,WNW,303,4.0,12.0,48,0.00,,,0.04,,2013-03-23 16:23:00,
2013-03-23 12:33:00,36.0,19.0,29.64,NNW,329,4.0,11.0,50,0.00,,,0.04,,2013-03-23 16:33:00,
2013-03-23 12:43:00,36.0,19.0,29.64,NNW,329,4.0,11.0,50,0.00,,,0.04,,2013-03-23 16:43:00,
2013-03-23 12:53:00,37.0,19.0,29.64,NNW,329,4.0,11.0,48,0.00,,,0.03,,2013-03-23 16:53:00,
2013-03-23 13:02:00,37.0,19.0,29.64,WNW,293,5.0,16.0,47,0.00,,,0.03,,2013-03-23 17:02:00,
2013-03-23 13:12:00,37.0,19.0,29.63,North,352,5.0,12.0,47,0.00,,,0.03,,2013-03-23 17:12:00,
2013-03-23 13:23:00,37.0,19.0,29.63,North,352,5.0,12.0,47,0.00,,,0.03,,2013-03-23 17:23:00,
2013-03-23 13:33:00,38.0,18.0,29.63,NNW,335,4.0,12.0,44,0.00,,,0.03,,2013-03-23 17:33:00,
2013-03-23 13:42:00,38.0,18.0,29.63,NNW,335,4.0,12.0,44,0.00,,,0.03,,2013-03-23 17:42:00,
2013-03-23 13:53:00,39.0,18.0,29.63,NW,321,5.0,11.0,43,0.00,,,0.02,,2013-03-23 17:53:00,
2013-03-23 14:03:00,39.0,18.0,29.62,NNW,333,4.0,12.0,42,0.00,,,0.02,,2013-03-23 18:03:00,
2013-03-23 14:12:00,39.0,18.0,29.62,NNW,333,4.0,12.0,42,0.00,,,0.02,,2013-03-23 18:12:00,
2013-03-23 14:22:00,39.0,18.0,29.62,NNE,16,3.0,12.0,42,0.00,,,0.02,,2013-03-23 18:22:00,
2013-03-23 14:32:00,39.0,18.0,29.62,NW,319,4.0,11.0,42,0.00,,,0.02,,2013-03-23 18:32:00,
2013-03-23 14:42:00,39.0,18.0,29.62,NW,319,4.0,11.0,42,0.00,,,0.02,,2013-03-23 18:42:00,
2013-03-23 14:53:00,40.0,18.0,29.61,NNW,328,5.0,11.0,41,0.00,,,0.01,,2013-03-23 18:53:00,
2013-03-23 15:03:00,39.0,18.0,29.61,NNE,28,4.0,19.0,42,0.00,,,0.01,,2013-03-23 19:03:00,
2013-03-23 15:13:00,39.0,18.0,29.61,NNE,28,4.0,19.0,42,0.00,,,0.01,,2013-03-23 19:13:00,
2013-03-23 15:23:00,39.0,18.0,29.61,NNW,347,4.0,10.0,42,0.00,,,0.01,,2013-03-23 19:23:00,
2013-03-23 15:32:00,39.0,18.0,29.61,NW,314,5.0,13.0,42,0.00,,,0.01,,2013-03-23 19:32:00,
2013-03-23 15:42:00,39.0,18.0,29.61,NW,314,5.0,13.0,42,0.00,,,0.01,,2013-03-23 19:42:00,
2013-03-23 15:53:00,39.0,17.0,29.61,NNW,340,6.0,14.0,41,0.00,,,0.01,,2013-03-23 19:53:00,
2013-03-23 16:03:00,39.0,18.0,29.61,NW,315,7.0,11.0,43,0.00,,,0.01,,2013-03-23 20:03:00,
2013-03-23 16:13:00,39.0,18.0,29.61,NW,315,7.0,11.0,43,0.00,,,0.01,,2013-03-23 20:13:00,
2013-03-23 16:22:00,39.0,19.0,29.61,NNW,327,6.0,16.0,44,0.00,,,0.01,,2013-03-23 20:22:00,
2013-03-23 16:32:00,40.0,20.0,29.61,North,351,5.0,12.0,44,0.00,,,0.01,,2013-03-23 20:32:00,
2013-03-23 16:42:00,40.0,20.0,29.61,North,351,5.0,12.0,44,0.00,,,0.01,,2013-03-23 20:42:00,
2013-03-23 16:53:00,39.0,20.0,29.62,NW,321,3.0,12.0,47,0.00,,,0.01,,2013-03-23 20:53:00,
2013-03-23 17:02:00,39.0,19.0,29.61,NNW,327,6.0,10.0,45,0.00,,,0.01,,2013-03-23 21:02:00,
2013-03-23 17:12:00,39.0,19.0,29.61,NNW,327,6.0,10.0,45,0.00,,,0.01,,2013-03-23 21:12:00,
2013-03-23 17:22:00,40.0,20.0,29.61,NW,324,3.0,10.0,44,0.00,,,0.01,,2013-03-23 21:22:00,
2013-03-23 17:33:00,40.0,20.0,29.62,NW,318,3.0,14.0,45,0.00,,,0.01,,2013-03-23 21:33:00,
2013-03-23 17:43:00,40.0,20.0,29.62,NW,318,3.0,14.0,45,0.00,,,0.01,,2013-03-23 21:43:00,
2013-03-23 17:54:00,40.0,19.0,29.63,North,10,4.0,10.0,43,0.00,,,0.00,,2013-03-23 21:54:00,
2013-03-23 18:03:00,39.0,18.0,29.63,NW,304,4.0,12.0,43,0.00,,,0.00,,2013-03-23 22:03:00,
2013-03-23 18:13:00,39.0,18.0,29.63,NW,304,4.0,12.0,43,0.00,,,0.00,,2013-03-23 22:13:00,
2013-03-23 18:23:00,39.0,17.0,29.64,WNW,298,6.0,10.0,41,0.00,,,0.00,,2013-03-23 22:23:00,
2013-03-23 18:33:00,39.0,18.0,29.65,NNE,17,2.0,16.0,43,0.00,,,0.00,,2013-03-23 22:33:00,
2013-03-23 18:42:00,39.0,18.0,29.65,NNE,17,2.0,16.0,43,0.00,,,0.00,,2013-03-23 22:42:00,
2013-03-23 18:53:00,38.0,18.0,29.65,NNW,347,5.0,13.0,43,0.00,,,0.00,,2013-03-23 22:53:00,
2013-03-23 19:02:00,38.0,18.0,29.66,ENE,64,4.0,10.0,44,0.00,,,0.00,,2013-03-23 23:02:00,
2013-03-23 19:13:00,38.0,18.0,29.66,ENE,64,4.0,10.0,44,0.00,,,0.00,,2013-03-23 23:13:00,
2013-03-23 19:23:00,37.0,18.0,29.67,North,354,5.0,11.0,46,0.00,,,0.00,,2013-03-23 23:23:00,
2013-03-23 19:33:00,37.0,18.0,29.68,NNW,328,2.0,10.0,46,0.00,,,0.00,,2013-03-23 23:33:00,
2013-03-23 19:43:00,37.0,18.0,29.68,NNW,328,2.0,10.0,46,0.00,,,0.00,,2013-03-23 23:43:00,
2013-03-23 19:52:00,37.0,19.0,29.68,North,360,0.0,3.0,48,0.00,,,0.00,,2013-03-23 23:52:00,
2013-03-23 20:02:00,36.0,19.0,29.69,North,8,2.0,4.0,49,0.00,,,0.00,,2013-03-24 00:02:00,
2013-03-23 20:13:00,36.0,19.0,29.69,North,8,2.0,4.0,49,0.00,,,0.00,,2013-03-24 00:13:00,
2013-03-23 20:23:00,36.0,19.0,29.70,North,351,1.0,5.0,49,0.00,,,0.00,,2013-03-24 00:23:00,
2013-03-23 20:33:00,36.0,19.0,29.71,East,86,2.0,5.0,50,0.00,,,0.00,,2013-03-24 00:33:00,
2013-03-23 20:42:00,36.0,19.0,29.71,East,86,2.0,5.0,50,0.00,,,0.00,,2013-03-24 00:42:00,
2013-03-23 20:53:00,36.0,19.0,29.72,NNE,18,2.0,5.0,50,0.00,,,0.00,,2013-03-24 00:53:00,
2013-03-23 21:02:00,36.0,20.0,29.72,NNW,342,2.0,12.0,51,0.00,,,0.00,,2013-03-24 01:02:00,
2013-03-23 21:12:00,36.0,20.0,29.72,NNW,342,2.0,12.0,51,0.00,,,0.00,,2013-03-24 01:12:00,
2013-03-23 21:22:00,36.0,19.0,29.74,NNE,26,2.0,4.0,49,0.00,,,0.00,,2013-03-24 01:22:00,
2013-03-23 21:32:00,36.0,19.0,29.74,NNE,13,2.0,9.0,50,0.00,,,0.00,,2013-03-24 01:32:00,
2013-03-23 21:42:00,36.0,19.0,29.74,NNE,13,2.0,9.0,50,0.00,,,0.00,,2013-03-24 01:42:00,
2013-03-23 21:53:00,35.0,18.0,29.74,NE,37,2.0,8.0,50,0.00,,,0.00,,2013-03-24 01:53:00,
2013-03-23 22:03:00,35.0,19.0,29.74,North,351,1.0,4.0,52,0.00,,,0.00,,2013-03-24 02:03:00,
2013-03-23 22:12:00,35.0,19.0,29.74,North,351,1.0,4.0,52,0.00,,,0.00,,2013-03-24 02:12:00,
2013-03-23 22:22:00,35.0,18.0,29.74,NNE,25,2.0,6.0,50,0.00,,,0.00,,2013-03-24 02:22:00,
2013-03-23 22:32:00,35.0,19.0,29.74,NNW,340,2.0,4.0,52,0.00,,,0.00,,2013-03-24 02:32:00,
2013-03-23 22:42:00,35.0,19.0,29.74,NNW,340,2.0,4.0,52,0.00,,,0.00,,2013-03-24 02:42:00,
2013-03-23 22:52:00,34.0,19.0,29.75,NNW,345,2.0,6.0,53,0.00,,,0.00,,2013-03-24 02:52:00,
2013-03-23 23:02:00,34.0,19.0,29.74,NW,324,2.0,5.0,54,0.00,,,0.00,,2013-03-24 03:02:00,
2013-03-23 23:12:00,34.0,19.0,29.74,NW,324,2.0,5.0,54,0.00,,,0.00,,2013-03-24 03:12:00,
2013-03-23 23:23:00,34.0,19.0,29.75,NNW,346,2.0,4.0,54,0.00,,,0.00,,2013-03-24 03:23:00,
2013-03-23 23:33:00,33.0,18.0,29.75,NW,326,0.0,10.0,54,0.00,,,0.00,,2013-03-24 03:33:00,
2013-03-23 23:42:00,33.0,18.0,29.75,NW,326,0.0,10.0,54,0.00,,,0.00,,2013-03-24 03:42:00,
2013-03-23 23:53:00,33.0,19.0,29.75,North,349,2.0,5.0,56,0.00,,,0.00,,2013-03-24 03:53:00,